Probability
1 2 3 3 3 3 3 3 3 3 3 4 4 4 3 3 3 3 4 6 8 9 9 7 6 7 7 7 7 7 6 6 4 3 1 0 0 0 0 0 0 0 0
2 3 3 3 3 3 3 3 3 3 3 3 3 3 3 3 3 3 4 5 7 9 9 8 7 7 7 7 7 7 6 6 4 3 2 1 0 0 0 0 0 0 0
3 3 3 3 3 3 3 3 3 3 3 3 2 3 3 3 3 4 4 5 7 8 9 10 9 8 6 6 7 7 7 7 6 5 4 2 1 0 0 1 1 1 0
2 2 2 3 3 3 3 3 3 3 3 2 1 2 3 4 4 5 6 6 6 7 8 10 11 9 6 6 6 7 8 8 8 7 6 4 2 2 3 4 4 2 1
2 1 1 3 3 3 3 3 3 3 3 2 1 1 2 4 5 6 6 6 6 6 7 8 10 9 6 6 6 7 9 10 9 8 8 8 6 5 7 9 8 5 3
3 2 1 3 3 3 3 3 3 3 4 3 1 1 2 3 4 4 5 5 6 7 7 7 7 7 6 6 7 8 10 11 10 9 9 9 9 8 10 11 11 9 7
4 3 3 3 3 3 3 3 3 4 4 3 1 1 1 1 1 2 2 3 4 6 7 7 6 5 5 5 7 10 11 11 11 10 9 10 11 11 10 9 9 9 9
4 4 3 3 3 3 3 3 3 3 3 2 1 1 1 1 1 1 1 1 1 3 6 8 7 6 5 5 6 8 9 9 10 11 12 12 12 12 9 7 5 6 7
3 3 3 4 4 4 4 4 3 2 2 2 2 2 2 2 2 2 1 1 0 0 2 5 7 6 6 5 5 6 8 9 9 11 14 14 14 11 8 5 4 5 7
1 1 2 4 5 5 5 4 3 2 2 3 3 3 3 4 4 4 3 2 1 0 0 2 4 5 5 5 5 7 10 10 9 11 13 14 14 11 7 5 5 5 6
0 0 1 3 4 4 4 4 3 4 5 4 4 4 4 5 4 5 4 2 1 0 0 0 1 2 4 5 6 9 11 10 8 9 11 12 12 10 8 6 6 5 5
0 0 1 2 3 3 4 4 5 6 6 6 5 4 5 6 5 4 3 1 0 0 0 0 0 0 2 4 7 9 9 9 7 7 8 9 9 8 8 7 7 6 6
0 0 1 2 3 3 4 5 6 6 6 6 5 5 6 6 6 5 3 1 0 0 0 0 0 0 0 2 5 6 8 7 6 5 5 6 6 6 6 7 7 7 6
1 2 3 4 4 4 5 5 6 5 4 4 4 5 6 6 6 6 4 2 1 1 0 0 0 0 0 0 2 4 6 6 5 3 3 4 4 4 4 5 6 6 6
4 5 6 6 6 6 6 6 6 4 3 3 3 5 5 5 5 6 5 4 4 3 1 0 0 0 0 0 1 2 4 5 5 3 1 1 1 1 1 3 3 3 3
7 8 9 9 10 9 8 7 6 5 3 4 5 5 4 3 4 7 8 8 8 7 4 2 1 0 0 0 0 1 2 4 4 2 0 0 0 0 0 1 1 1 1
9 10 11 12 12 12 10 9 9 8 7 7 7 6 5 5 7 10 11 12 12 11 8 5 3 2 1 1 0 0 2 4 5 3 1 1 0 0 0 0 0 0 0
13 13 12 12 12 12 12 12 13 12 11 10 8 7 7 7 9 11 12 13 14 14 11 7 4 4 4 3 2 1 2 4 5 5 3 2 1 0 0 0 0 0 0
14 13 11 9 8 10 12 14 15 13 11 9 8 7 8 8 9 11 12 13 13 13 11 9 6 6 6 6 4 3 3 4 5 5 6 4 2 1 0 0 0 0 0
11 9 7 5 5 7 11 14 14 13 11 9 8 8 8 9 11 12 12 12 12 11 11 10 8 7 7 6 6 5 5 5 5 6 6 5 4 3 1 1 0 0 0
9 7 5 4 4 7 9 12 13 13 11 10 9 9 9 9 11 12 12 12 11 11 11 10 9 8 7 7 7 8 8 8 8 7 6 6 5 5 4 3 2 1 1
9 9 9 8 8 9 10 11 11 10 10 11 10 9 7 8 8 9 10 10 11 11 10 10 9 9 9 9 9 9 10 10 10 9 7 6 6 6 6 5 5 3 2
10 10 11 11 11 11 10 10 8 6 7 9 10 8 7 6 7 8 8 9 9 9 9 9 9 9 10 10 10 10 9 9 9 9 8 6 6 6 6 6 6 4 3
9 9 9 9 9 9 7 6 5 5 5 6 7 7 6 6 7 7 7 6 6 7 7 8 8 8 9 9 9 9 9 8 8 8 8 7 5 5 6 6 6 4 2
9 8 7 7 6 5 3 2 2 4 4 3 3 4 4 4 4 4 4 4 5 5 6 6 6 7 7 8 8 9 9 9 7 7 7 6 5 5 6 5 4 2 1
10 8 7 6 5 4 2 1 1 2 3 2 2 3 3 3 3 2 2 4 4 4 5 5 5 6 6 7 7 8 10 10 8 6 6 6 5 5 5 3 1 1 0
Wind_Speed
2 2 2 2 2 1 2 2 2 2 2 3 3 4 4 4 4 4 3 9 10 11 12 12 12 12 12 12 11 11 11 11 11 10 11 11 11 11 11 10 10 10 10
2 2 2 2 2 2 2 2 2 2 2 2 3 4 4 4 4 4 4 6 10 11 11 12 12 12 12 12 12 12 12 11 10 10 10 11 11 11 11 11 11 10 9
2 2 2 2 2 1 1 1 1 1 1 1 2 3 3 3 4 5 5 4 5 9 11 12 12 12 12 12 12 12 12 12 11 11 10 10 10 10 10 11 11 11 10
2 2 2 1 1 1 1 1 1 1 1 1 1 2 2 3 4 4 4 4 4 4 8 11 12 12 12 12 12 12 12 12 12 12 11 11 11 11 11 11 11 11 11
2 2 1 1 1 1 1 1 1 1 1 1 2 2 2 2 3 4 4 5 5 4 4 8 11 11 11 12 12 13 12 12 11 11 11 11 11 10 11 11 11 11 10
2 2 1 1 1 1 0 0 1 0 1 1 1 2 2 2 2 2 3 3 4 5 4 5 5 7 10 10 11 11 12 13 12 11 11 12 11 10 10 11 11 12 11
2 2 1 1 1 1 1 1 1 0 1 0 1 2 2 2 1 2 2 2 3 4 4 5 4 3 4 9 11 12 13 13 12 12 12 12 11 11 11 11 11 11 11
2 2 2 1 1 1 1 1 1 0 1 0 1 1 2 3 2 2 1 2 3 2 3 5 4 5 4 4 6 11 13 13 12 11 11 11 11 11 10 10 10 11 11
2 1 2 1 1 2 1 1 1 1 1 1 1 2 1 1 3 2 2 1 2 2 3 3 4 5 6 4 4 9 12 11 11 11 11 11 11 11 10 11 10 10 11
1 2 2 2 2 1 1 1 2 1 2 1 1 0 2 2 1 2 3 2 3 3 3 3 3 5 5 4 5 8 10 10 11 11 11 10 10 10 11 12 12 11 11
1 1 1 2 2 1 2 2 1 1 1 2 1 1 0 0 1 1 2 3 3 3 3 3 3 3 3 3 4 6 9 10 10 11 11 11 11 11 11 12 13 12 12
0 0 1 1 1 1 1 2 2 2 1 1 1 1 1 1 1 1 2 2 3 3 3 2 2 2 3 3 5 7 9 9 9 9 10 10 11 11 10 10 12 13 13
1 1 1 1 1 1 1 1 1 1 1 1 1 1 1 2 2 1 2 2 2 3 2 2 2 2 2 2 3 7 7 8 8 8 8 9 9 9 9 10 10 10 12
2 2 1 1 1 2 1 1 0 1 1 1 2 1 1 1 1 1 2 1 1 2 2 3 2 2 2 2 3 6 4 7 8 8 8 8 8 8 8 9 9 9 9
2 2 2 1 1 1 1 1 0 1 1 1 1 1 1 1 1 1 1 1 2 2 3 3 2 2 2 2 3 3 3 6 8 9 8 8 8 8 8 8 7 7 7
2 2 1 1 1 1 1 1 1 1 1 1 1 1 1 1 1 1 1 1 2 2 3 3 3 3 2 2 2 2 3 6 6 7 7 8 8 8 8 7 7 7 7
2 2 2 2 2 2 2 2 2 1 1 2 1 1 2 1 1 1 1 1 1 1 3 4 2 2 1 2 2 1 2 2 3 5 6 7 7 7 7 7 7 7 7
2 2 2 2 2 2 2 2 3 2 2 3 3 2 2 2 2 2 1 2 2 2 2 4 3 2 2 2 2 2 2 2 2 3 4 5 6 7 7 7 7 7 8
2 2 1 2 2 2 2 3 3 3 3 3 3 3 3 3 3 2 2 2 2 2 2 3 4 2 2 2 1 2 2 2 2 2 3 4 5 5 6 7 7 7 8
3 3 2 2 3 3 2 2 2 2 3 3 3 4 4 3 3 3 3 3 3 2 2 2 3 2 2 2 1 1 2 2 2 2 2 3 3 4 5 6 6 7 7
4 3 3 3 3 2 2 2 3 3 3 3 3 3 4 4 4 3 3 3 2 2 2 2 3 2 3 2 2 1 2 2 2 1 1 2 1 2 3 4 5 6 6
3 3 3 3 3 3 4 4 3 2 3 3 3 4 4 4 4 5 5 4 4 3 3 2 3 3 4 3 2 2 1 1 2 1 1 2 1 2 2 2 3 5 6
3 3 3 3 3 4 4 4 4 3 3 3 3 3 4 3 3 3 5 5 5 5 5 4 4 5 4 3 2 2 2 2 4 3 1 3 2 2 3 3 4 5 5
3 3 3 3 3 3 4 5 4 3 3 3 4 4 4 4 4 3 3 4 4 4 5 4 5 5 4 3 3 3 4 3 3 2 2 2 2 3 3 3 4 5 5
3 3 3 3 3 3 4 4 3 1 2 4 4 3 4 4 5 4 3 4 5 5 5 5 5 5 5 5 3 1 1 1 3 3 2 2 2 2 2 3 3 5 5
3 3 3 3 4 3 4 4 4 1 3 3 4 4 5 5 6 5 3 3 5 6 4 4 4 4 4 4 4 4 3 3 2 3 3 2 2 1 2 2 2 2 2
Wind_Direction
173 181 197 192 195 189 187 192 212 216 224 232 221 212 214 215 203 206 219 214 214 214 214 214 213 213 214 215 217 218 222 225 225 223 223 223 224 224 222 221 219 218 218
169 175 177 178 195 197 191 192 207 205 227 231 227 219 217 211 201 204 214 219 218 217 217 218 218 215 215 217 220 221 224 226 225 224 225 227 227 228 226 222 220 219 217
154 161 167 185 204 193 174 165 175 174 225 240 240 232 221 210 203 206 214 218 222 223 221 221 219 219 220 220 220 222 226 228 228 228 228 227 226 226 221 220 220 219 217
145 149 154 192 197 160 151 159 166 187 236 246 256 246 229 215 217 215 214 217 215 221 223 222 222 224 226 226 225 225 228 229 229 230 229 228 228 225 222 219 219 218 216
147 141 142 176 154 133 154 192 163 185 213 246 257 258 243 224 225 224 219 218 216 220 223 226 226 226 230 232 229 230 233 234 232 230 229 230 227 224 224 221 218 216 217
151 145 150 164 141 128 138 184 183 212 214 222 257 280 271 247 234 228 222 218 221 220 219 227 228 230 230 233 235 238 238 237 234 231 231 231 226 224 224 222 219 220 220
162 153 155 160 149 156 193 188 162 222 317 97 43 331 315 288 254 243 235 226 231 227 217 219 214 221 231 234 236 239 243 240 236 235 233 230 227 224 223 225 224 223 222
179 168 164 165 166 158 166 172 135 142 285 101 125 44 341 339 324 276 253 235 246 238 227 222 213 211 222 227 231 234 240 242 240 236 230 228 227 226 224 224 225 226 226
172 157 148 147 153 152 178 201 180 176 229 295 134 143 143 266 307 314 296 275 271 256 241 229 221 220 222 221 228 235 236 238 237 233 228 225 224 220 219 222 225 228 231
148 141 139 133 144 154 178 207 176 186 175 227 299 215 193 186 196 304 314 299 285 272 263 254 238 231 229 226 226 226 228 231 232 233 229 224 223 222 223 223 224 226 229
159 150 140 138 155 172 191 202 196 199 189 190 206 243 282 257 198 191 276 301 304 280 267 257 246 242 237 232 223 224 225 227 229 235 233 228 225 225 227 230 227 226 227
251 223 145 150 170 187 200 206 202 199 201 190 203 206 199 213 237 210 235 266 284 287 281 270 267 253 245 233 233 225 223 225 227 231 231 230 230 230 232 236 235 230 228
222 236 204 190 193 210 205 185 185 216 194 185 215 233 233 229 216 200 206 251 272 287 298 281 252 253 250 231 242 234 228 227 226 229 231 231 231 232 235 238 239 238 235
213 212 205 208 208 206 199 172 193 229 208 218 239 243 256 265 226 206 205 213 286 299 291 277 280 255 256 241 251 238 235 230 227 229 229 229 229 231 233 236 239 237 238
209 202 203 208 205 198 202 182 216 255 251 246 257 263 272 283 267 246 219 192 189 263 285 281 285 277 260 241 248 236 234 232 231 230 228 228 230 229 230 232 235 233 233
214 196 210 211 208 209 198 175 211 253 261 281 276 306 298 283 291 298 247 229 199 200 252 270 265 281 283 284 270 243 242 245 238 235 231 231 231 229 230 230 233 233 232
205 202 205 201 211 217 210 194 220 224 229 265 265 245 268 273 285 295 282 262 254 209 245 277 272 286 299 305 307 274 261 247 249 245 237 233 231 232 232 229 229 230 232
196 204 208 214 220 223 216 211 230 237 235 240 249 251 266 272 278 276 278 274 265 244 226 265 282 285 273 274 283 282 282 271 261 262 252 243 240 239 235 233 232 231 234
185 212 200 227 240 235 229 230 230 243 242 244 246 246 254 257 272 277 276 279 275 279 241 246 271 275 270 287 305 298 296 282 277 281 276 263 253 249 242 240 235 233 234
193 213 215 223 239 241 236 236 236 239 247 250 247 246 247 243 249 263 276 276 271 271 264 262 273 282 276 277 281 283 303 289 281 290 295 285 277 261 249 247 241 237 234
206 212 219 233 243 243 243 239 236 241 250 260 262 259 256 254 252 249 261 257 260 263 267 264 270 279 281 284 276 261 270 277 274 251 281 284 283 286 267 251 243 240 234
217 214 226 239 246 249 244 234 227 243 248 250 265 274 273 264 271 274 275 271 253 243 250 249 260 266 271 263 257 256 263 290 290 269 217 271 261 276 276 257 252 241 235
214 219 224 220 231 244 239 241 244 236 242 250 256 267 278 275 274 275 284 289 282 274 250 227 240 251 256 253 243 264 259 247 253 245 220 266 257 266 271 262 247 240 239
215 221 223 224 231 245 230 237 248 241 248 255 253 246 246 263 273 269 273 280 277 276 265 249 237 246 249 246 225 232 243 258 269 261 196 242 258 262 275 266 255 241 238
220 223 217 216 221 248 240 239 233 241 253 266 266 253 239 250 269 270 261 275 285 286 284 283 273 266 269 270 259 240 261 255 276 268 224 217 252 271 273 268 267 253 243
218 220 230 223 215 235 247 244 228 227 254 268 278 275 267 262 265 255 239 250 272 277 286 298 292 287 273 268 261 217 212 226 248 262 235 211 240 246 288 276 274 276 258